When you browse on this site, cookies collect data to enhance your experience and personalize the content and advertising you see.
Visit our Privacy Policy to learn more. By continuing to use the site, you agree to this use of cookies and data.

Hourly Weather Shkoder

Today, 7 August, Friday

Time Temperature Precipitation Wind Pressure Humidity
00:00 +19°C° 0 mm 3 mps 738 mmHg 82%
01:00 +19°C° 0 mm 2 mps 738 mmHg 82%
02:00 +19°C° 0 mm 2 mps 738 mmHg 83%
03:00 +18°C° 0 mm 2 mps 738 mmHg 83%
04:00 +18°C° 0 mm 2 mps 738 mmHg 84%
05:00 +19°C° 0 mm 2 mps 738 mmHg 81%
06:00 +20°C° 0 mm 2 mps 738 mmHg 78%
07:00 +23°C° 0 mm 2 mps 738 mmHg 75%
08:00 +24°C° 0 mm 2 mps 738 mmHg 69%
09:00 +26°C° 0 mm 2 mps 739 mmHg 62%
10:00 +27°C° 0 mm 2 mps 739 mmHg 56%
11:00 +28°C° 0.2 mm 3 mps 739 mmHg 54%
12:00 +29°C° 0.2 mm 3 mps 739 mmHg 51%
13:00 +30°C° 0.2 mm 3 mps 739 mmHg 48%
14:00 +29°C° 0.3 mm 3 mps 739 mmHg 49%
15:00 +29°C° 0.3 mm 3 mps 739 mmHg 50%
16:00 +29°C° 0.3 mm 3 mps 739 mmHg 51%
17:00 +27°C° 0.1 mm 3 mps 738 mmHg 57%
18:00 +26°C° 0.1 mm 3 mps 738 mmHg 62%
19:00 +24°C° 0.1 mm 2 mps 738 mmHg 67%
20:00 +24°C° 0 mm 2 mps 738 mmHg 68%
21:00 +23°C° 0 mm 2 mps 739 mmHg 68%
22:00 +21°C° 0 mm 2 mps 739 mmHg 69%
23:00 +21°C° 0 mm 2 mps 739 mmHg 71%

Tomorrow, 8 August, Saturday

Time Temperature Precipitation Wind Pressure Humidity
00:00 +21°C° 0 mm 2 mps 738 mmHg 73%
01:00 +20°C° 0 mm 2 mps 738 mmHg 75%
02:00 +20°C° 0 mm 3 mps 738 mmHg 77%
03:00 +20°C° 0 mm 3 mps 738 mmHg 78%
04:00 +19°C° 0 mm 3 mps 738 mmHg 79%
05:00 +20°C° 0 mm 3 mps 738 mmHg 76%
06:00 +22°C° 0 mm 3 mps 738 mmHg 74%
07:00 +24°C° 0 mm 3 mps 738 mmHg 71%
08:00 +25°C° 0 mm 3 mps 738 mmHg 66%
09:00 +26°C° 0 mm 3 mps 738 mmHg 62%
10:00 +28°C° 0 mm 3 mps 739 mmHg 57%
11:00 +28°C° 0.2 mm 3 mps 738 mmHg 54%
12:00 +29°C° 0.2 mm 3 mps 738 mmHg 51%
13:00 +30°C° 0.2 mm 3 mps 738 mmHg 48%
14:00 +30°C° 0 mm 3 mps 738 mmHg 49%
15:00 +30°C° 0 mm 3 mps 738 mmHg 51%
16:00 +29°C° 0 mm 4 mps 738 mmHg 52%
17:00 +28°C° 0 mm 3 mps 738 mmHg 57%
18:00 +26°C° 0 mm 3 mps 738 mmHg 61%
19:00 +25°C° 0 mm 3 mps 738 mmHg 66%
20:00 +24°C° 0 mm 3 mps 738 mmHg 67%
21:00 +24°C° 0 mm 3 mps 738 mmHg 69%
22:00 +22°C° 0 mm 3 mps 738 mmHg 70%
23:00 +22°C° 0 mm 3 mps 738 mmHg 71%

Day after tomorrow, 9 August, Sunday

Time Temperature Precipitation Wind Pressure Humidity
00:00 +22°C° 0 mm 3 mps 738 mmHg 72%
01:00 +22°C° 0 mm 3 mps 738 mmHg 73%
02:00 +22°C° 0 mm 3 mps 737 mmHg 73%
03:00 +21°C° 0 mm 3 mps 737 mmHg 73%
04:00 +21°C° 0 mm 3 mps 737 mmHg 73%
05:00 +22°C° 0 mm 3 mps 737 mmHg 70%
06:00 +24°C° 0 mm 3 mps 738 mmHg 67%
07:00 +25°C° 0 mm 3 mps 738 mmHg 64%
08:00 +27°C° 0 mm 3 mps 738 mmHg 59%
09:00 +29°C° 0 mm 3 mps 738 mmHg 53%
10:00 +31°C° 0 mm 3 mps 738 mmHg 48%
11:00 +32°C° 0 mm 4 mps 738 mmHg 45%
12:00 +33°C° 0 mm 4 mps 738 mmHg 42%
13:00 +34°C° 0 mm 4 mps 738 mmHg 40%
14:00 +34°C° 0 mm 4 mps 738 mmHg 41%
15:00 +34°C° 0 mm 4 mps 737 mmHg 42%
16:00 +33°C° 0 mm 4 mps 737 mmHg 42%
17:00 +30°C° 0 mm 4 mps 737 mmHg 49%
18:00 +29°C° 0 mm 3 mps 737 mmHg 55%
19:00 +27°C° 0 mm 3 mps 738 mmHg 62%
20:00 +26°C° 0 mm 3 mps 738 mmHg 65%
21:00 +25°C° 0 mm 3 mps 738 mmHg 68%
22:00 +24°C° 0 mm 3 mps 738 mmHg 71%
23:00 +24°C° 0 mm 3 mps 738 mmHg 71%

10 August, Monday

Time Temperature Precipitation Wind Pressure Humidity
00:00 +22°C° 0 mm 3 mps 738 mmHg 72%
01:00 +22°C° 0 mm 3 mps 738 mmHg 73%
02:00 +22°C° 0 mm 3 mps 738 mmHg 73%
03:00 +21°C° 0 mm 3 mps 738 mmHg 74%
04:00 +21°C° 0 mm 3 mps 738 mmHg 74%
05:00 +22°C° 0 mm 3 mps 738 mmHg 70%
06:00 +25°C° 0 mm 2 mps 738 mmHg 66%
07:00 +26°C° 0 mm 2 mps 738 mmHg 61%
08:00 +28°C° 0 mm 2 mps 738 mmHg 55%
09:00 +30°C° 0 mm 2 mps 739 mmHg 48%
10:00 +31°C° 0 mm 2 mps 739 mmHg 41%
11:00 +32°C° 0 mm 2 mps 739 mmHg 39%
12:00 +34°C° 0 mm 2 mps 739 mmHg 37%
13:00 +35°C° 0 mm 3 mps 738 mmHg 35%
14:00 +34°C° 0.1 mm 3 mps 738 mmHg 36%
15:00 +34°C° 0.1 mm 3 mps 738 mmHg 37%
16:00 +34°C° 0.1 mm 3 mps 738 mmHg 37%
17:00 +31°C° 0.1 mm 3 mps 738 mmHg 44%
18:00 +29°C° 0.1 mm 2 mps 738 mmHg 51%
19:00 +27°C° 0.1 mm 2 mps 738 mmHg 58%
20:00 +26°C° 0.1 mm 2 mps 739 mmHg 60%
21:00 +26°C° 0.1 mm 2 mps 739 mmHg 62%
22:00 +25°C° 0.1 mm 2 mps 739 mmHg 64%
23:00 +25°C° 0 mm 2 mps 739 mmHg 65%

11 August, Tuesday

Time Temperature Precipitation Wind Pressure Humidity
00:00 +24°C° 0 mm 2 mps 740 mmHg 66%
01:00 +24°C° 0 mm 2 mps 740 mmHg 67%
02:00 +24°C° 0 mm 2 mps 739 mmHg 68%
03:00 +23°C° 0 mm 2 mps 739 mmHg 68%
04:00 +23°C° 0 mm 2 mps 739 mmHg 68%
05:00 +24°C° 0 mm 2 mps 739 mmHg 65%
06:00 +26°C° 0 mm 1 mps 740 mmHg 62%
07:00 +27°C° 0 mm 1 mps 740 mmHg 58%
08:00 +29°C° 0 mm 1 mps 740 mmHg 53%
09:00 +31°C° 0 mm 1 mps 740 mmHg 47%
10:00 +32°C° 0 mm 1 mps 740 mmHg 41%
11:00 +34°C° 0 mm 2 mps 740 mmHg 39%
12:00 +35°C° 0 mm 2 mps 740 mmHg 38%
13:00 +35°C° 0 mm 2 mps 740 mmHg 36%
14:00 +35°C° 0.1 mm 2 mps 739 mmHg 36%
15:00 +35°C° 0.1 mm 2 mps 739 mmHg 37%
16:00 +35°C° 0.1 mm 2 mps 739 mmHg 38%
17:00 +31°C° 0.1 mm 2 mps 739 mmHg 45%
18:00 +29°C° 0.1 mm 2 mps 739 mmHg 52%
19:00 +27°C° 0.1 mm 1 mps 739 mmHg 59%
20:00 +26°C° 0 mm 1 mps 739 mmHg 60%
21:00 +26°C° 0 mm 1 mps 739 mmHg 61%
22:00 +25°C° 0 mm 2 mps 740 mmHg 63%
23:00 +25°C° 0 mm 2 mps 739 mmHg 63%

12 August, Wednesday

Time Temperature Precipitation Wind Pressure Humidity
00:00 +25°C° 0 mm 2 mps 739 mmHg 63%
01:00 +24°C° 0 mm 2 mps 739 mmHg 64%
02:00 +24°C° 0 mm 2 mps 739 mmHg 65%
03:00 +24°C° 0 mm 2 mps 739 mmHg 66%
04:00 +23°C° 0 mm 1 mps 739 mmHg 67%
05:00 +25°C° 0 mm 1 mps 739 mmHg 64%
06:00 +26°C° 0 mm 1 mps 739 mmHg 61%
07:00 +28°C° 0 mm 1 mps 739 mmHg 57%
08:00 +29°C° 0 mm 1 mps 739 mmHg 52%
09:00 +31°C° 0 mm 1 mps 739 mmHg 47%
10:00 +33°C° 0 mm 1 mps 739 mmHg 41%
11:00 +33°C° 0 mm 1 mps 739 mmHg 40%
12:00 +35°C° 0 mm 2 mps 739 mmHg 38%
13:00 +36°C° 0 mm 2 mps 739 mmHg 36%
14:00 +35°C° 0.1 mm 2 mps 739 mmHg 38%
15:00 +35°C° 0.1 mm 2 mps 738 mmHg 40%
16:00 +34°C° 0.1 mm 2 mps 738 mmHg 42%
17:00 +31°C° 0.1 mm 2 mps 738 mmHg 48%
18:00 +29°C° 0.1 mm 2 mps 739 mmHg 55%
19:00 +28°C° 0.1 mm 1 mps 739 mmHg 61%
20:00 +27°C° 0.4 mm 1 mps 739 mmHg 65%
21:00 +26°C° 0.4 mm 2 mps 739 mmHg 69%
22:00 +25°C° 0.4 mm 2 mps 739 mmHg 73%
23:00 +24°C° 0.3 mm 2 mps 739 mmHg 73%
Show more